Rochester, NH

8:00 PM EDT on April 29, 2017 (GMT -0400)
Skyhaven

Weather History for KDAW - June, 2013

Change the Weather History Date:

Saturday, June 29, 2013

  Actual Average (KPSM) Record (KPSM)
Temperature  
Mean Temperature 73 °F -  
Max Temperature 84 °F 78 °F 94 °F (1991)
Min Temperature 64 °F 59 °F 45 °F (1983)
Cooling Degree Days 8    
Growing Degree Days 23 (Base 50)    
Moisture  
Dew Point 67 °F    
Average Humidity 84    
Maximum Humidity 100    
Minimum Humidity 54    
Precipitation  
Precipitation 0.01 in - - ()
Sea Level Pressure  
Sea Level Pressure 29.56 in    
Wind  
Wind Speed 2 mph (SSE)    
Max Wind Speed 10 mph    
Max Gust Speed 17 mph    
Visibility 6 miles    
Events Fog , Rain    
Averages and records for this station are not official NWS values.
T = Trace of Precipitation, MM = Missing Value Source: NWS Daily Summary

Daily Weather History Graph

Daily Weather History Graph

Search for Another Location

Airport or City:

Trip Planner

Search our weather history database for the weather conditions in past years. The results will help you decide how hot, cold, wet, or windy it might be!

Date:

Astronomy

Jun. 29, 2013 Rise Set
Actual Time 5:06 AM EDT 8:27 PM EDT
Civil Twilight 4:30 AM EDT 9:03 PM EDT
Nautical Twilight 3:44 AM EDT 9:49 PM EDT
Astronomical Twilight 2:47 AM EDT 10:46 PM EDT
Moon No Moon Rise 12:27 PM EDT (6/29)
Length of Visible Light 16h 32m
Length of Day
15h 21m
Waning Gibbous, 56% of the Moon is Illuminated
Jun 29
Waning Gibbous
Jun 30
Last Quarter
Jul 8
New
Jul 15
First Quarter
Jul 22
Full

Hourly Weather History & Observations

Time (EDT) Temp. Heat Index Dew Point Humidity Pressure Visibility Wind Dir Wind Speed Gust Speed Precip Events Conditions
12:51 AM 64.0 °F - 63.0 °F 96% 29.54 in 0.5 mi Calm Calm - N/A Fog Fog
1:51 AM 64.0 °F - 63.0 °F 96% 29.52 in 0.5 mi Calm Calm - N/A Fog Fog
2:51 AM 64.9 °F - 64.0 °F 97% 29.51 in 0.2 mi Calm Calm - N/A Fog Fog
3:05 AM 64.4 °F - 64.4 °F 100% 29.52 in 0.5 mi Calm Calm - N/A Fog Fog
3:51 AM 64.9 °F - 64.0 °F 97% 29.51 in 1.0 mi Calm Calm - N/A   Mist
4:29 AM 66.2 °F - 64.4 °F 94% 29.54 in 2.5 mi Calm Calm - N/A   Overcast
4:38 AM 66.2 °F - 64.4 °F 94% 29.53 in 3.0 mi Calm Calm - N/A   Overcast
4:51 AM 66.9 °F - 66.0 °F 97% 29.52 in 3.0 mi Calm Calm - N/A   Overcast
5:01 AM 66.2 °F - 66.2 °F 100% 29.53 in 2.0 mi Calm Calm - N/A   Overcast
5:17 AM 66.2 °F - 66.2 °F 100% 29.53 in 1.5 mi Calm Calm - N/A   Overcast
5:51 AM 66.9 °F - 66.0 °F 97% 29.53 in 1.2 mi Calm Calm - N/A   Overcast
6:08 AM 66.2 °F - 66.2 °F 100% 29.55 in 0.8 mi SSE 3.5 mph - N/A   Overcast
6:32 AM 66.2 °F - 66.2 °F 100% 29.55 in 0.2 mi Calm Calm - N/A Fog Fog
6:43 AM 68.0 °F - 66.2 °F 94% 29.55 in 0.5 mi Calm Calm - 0.01 in Fog , Rain Light Rain
6:51 AM 68.0 °F - 66.9 °F 96% 29.54 in 0.5 mi Calm Calm - 0.01 in Fog Fog
7:51 AM 69.1 °F - 68.0 °F 96% 29.56 in 1.2 mi SSE 4.6 mph - N/A   Overcast
8:27 AM 69.8 °F - 68.0 °F 94% 29.57 in 2.5 mi Calm Calm - N/A   Overcast
8:38 AM 69.8 °F - 69.8 °F 100% 29.57 in 3.0 mi SSE 3.5 mph - N/A   Overcast
8:51 AM 70.0 °F - 69.1 °F 97% 29.56 in 4.0 mi Calm Calm - N/A   Overcast
9:27 AM 73.4 °F - 69.8 °F 88% 29.57 in 7.0 mi Calm Calm - N/A   Overcast
9:47 AM 75.2 °F - 69.8 °F 83% 29.57 in 9.0 mi Variable 3.5 mph - N/A   Mostly Cloudy
9:51 AM 75.0 °F - 70.0 °F 84% 29.56 in 9.0 mi Variable 3.5 mph - N/A   Overcast
10:51 AM 77.0 °F - 70.0 °F 79% 29.56 in 10.0 mi Variable 3.5 mph - N/A   Scattered Clouds
11:19 AM 75.2 °F - 69.8 °F 83% 29.57 in 10.0 mi South 3.5 mph - N/A   Overcast
11:34 AM 75.2 °F - 69.8 °F 83% 29.57 in 10.0 mi Calm Calm - 0.00 in Rain Light Rain
11:51 AM 75.9 °F - 70.0 °F 82% 29.56 in 10.0 mi Calm Calm - 0.00 in Rain Light Rain
12:08 PM 77.0 °F - 69.8 °F 78% 29.57 in 10.0 mi Variable 4.6 mph - 0.00 in   Overcast
12:24 PM 77.0 °F - 69.8 °F 78% 29.57 in 10.0 mi Variable 4.6 mph - 0.00 in   Scattered Clouds
12:33 PM 77.0 °F - 69.8 °F 78% 29.57 in 10.0 mi Calm Calm - 0.00 in   Mostly Cloudy
12:51 PM 78.1 °F - 70.0 °F 76% 29.56 in 10.0 mi South 6.9 mph - 0.00 in   Mostly Cloudy
12:59 PM 78.8 °F - 69.8 °F 74% 29.57 in 10.0 mi South 8.1 mph - N/A   Mostly Cloudy
1:16 PM 78.8 °F - 69.8 °F 74% 29.57 in 10.0 mi Variable 3.5 mph - N/A   Mostly Cloudy
1:40 PM 78.8 °F - 69.8 °F 74% 29.57 in 10.0 mi Variable 5.8 mph - N/A   Mostly Cloudy
1:51 PM 80.1 °F 82.9 °F 69.1 °F 69% 29.56 in 10.0 mi South 8.1 mph - N/A   Mostly Cloudy
2:51 PM 81.0 °F 83.8 °F 68.0 °F 65% 29.55 in 10.0 mi Variable 4.6 mph - N/A   Scattered Clouds
3:51 PM 82.9 °F 85.8 °F 68.0 °F 60% 29.55 in 10.0 mi South 10.4 mph 17.3 mph N/A   Scattered Clouds
4:51 PM 82.9 °F 85.0 °F 66.0 °F 56% 29.56 in 10.0 mi Variable 6.9 mph - N/A   Partly Cloudy
5:51 PM 82.0 °F 83.4 °F 64.0 °F 54% 29.56 in 10.0 mi Variable 5.8 mph - N/A   Clear
6:51 PM 81.0 °F 82.7 °F 64.9 °F 58% 29.57 in 10.0 mi Variable 6.9 mph - N/A   Clear
7:51 PM 78.1 °F - 64.9 °F 64% 29.60 in 10.0 mi South 5.8 mph - N/A   Clear
8:51 PM 75.0 °F - 66.0 °F 73% 29.62 in 10.0 mi South 3.5 mph - N/A   Clear
9:51 PM 73.9 °F - 66.0 °F 76% 29.65 in 10.0 mi Variable 3.5 mph - N/A   Mostly Cloudy
10:51 PM 72.0 °F - 64.9 °F 78% 29.66 in 10.0 mi Calm Calm - N/A   Clear
11:51 PM 71.1 °F - 66.0 °F 84% 29.69 in 10.0 mi Calm Calm - N/A   Clear